RS-44 & BREEZE-KM R/B

Last updated on Thu Oct 30 2025 00:03:10 GMT+0000 (Coordinated Universal Time)

1 44909U 19096E 25302.52956558 .00000022 00000+0 47816-4 0 9991 2 44909 82.5182 132.9906 0216927 323.9074 34.7545 12.79744894272845
UTC large
Height (km)
Speed (km/s)
/
Latitude / Longitude
Inclination (degrees)
Orbital Period (minutes)
Azimuth
Elevation
Range (km)
Doppler Factor

Next 0 passes for location: London (51.5072 / 0.1276)

Sorry there are no passes over London.